星链-37111(STARLINK-37111)

导读

STARLINK-37111(NORAD编号68381)是美国SpaceX公司星链(Starlink)星座的低轨卫星,属于全球卫星互联网项目的组成部分。星链项目旨在通过部署近地轨道卫星,为全球包括偏远地区在内的用户提供高速低延迟宽带互联网服务,该卫星运行于近地轨道,依托星链的相控阵天线、星间激光链路等技术,可提供高带宽连接,支持多用户同时接入。作为星链大规模组网的一员,它助力扩展星座覆盖范围,推动全球互联网接入普及,但该卫星也同其他星链卫星一样,引发了关于太空拥堵、天文观测干扰等方面的担忧。

基本信息
目录编号:
68381
目录名称:
STARLINK-37111
国际标识:
2026-063B
轨道中心:
EARTH
卫星名称:
星链-37111
卫星全名:
星链-37111(STARLINK-37111)
卫星状态:
在轨 (已飞行76 天)
发射日期:
2026-03-26 UTC
国别 :
美国 (US)
星等 :
--
轨道信息
数据来源 国际轨道数据 AOE轨道数据
星历时间 2026-06-10T07:16:35+0800
12小时前
查看轨道信息
2026-06-09T11:00:00+0800
1天前
查看轨道信息
半长轴 6843.76km 6843.698km
偏心率 0.0000643 0.0000512
轨道倾角 97.284° 97.286°
近地点辐角 76.162° 123.640°
升交点赤经 303.255° 302.425°
平近点角 283.970° 255.679°
近地点 465.182km 465.21km
远地点 466.064km 465.912km
周期 93.908分钟 93.907分钟
每日圈数 15.334183 15.334393
详细信息
固有亮度:
5
最大亮度:
2.5
卫星平台:
Starlink V1.0
覆盖范围:
全球
运营商:
太空探索技术公司
运营商所在国:
美国
制造商(研发单位):
太空探索技术公司
制造商所在国:
美国
使用方式:
暂无
卫星简介
Starlink 计划是 SpaceX 推出的全球卫星互联网项目,通过发射低轨道卫星,为全球尤其是偏远地区提供高速、低延迟的互联网服务。自 2019 年起,Starlink 已部署数千颗卫星,旨在缩小全球数字鸿沟,推动互联网普及。该项目还为军事、航空等行业提供通信支持,带来广泛经济效益。
2D轨道图
3D轨道图
轨道高度分析图
轨道倾角分析图
轨道综合分析图
查看轨道综合分析图